Tracking 18843 objects as of 20-November-2017
HD Live streaming from Space Station
objects crossing your sky now

FENGYUN 1C DEB

Track FENGYUN 1C DEB now!
10-day predictions


NORAD ID: 33731
Int'l Code: 1999-025DHU
Perigee: 843.4 km
Apogee: 1,053.9 km
Inclination: 99.3 °
Period: 103.9 minutes
Semi major axis: 7319 km
RCS: 0.0076 m2 (small)
Launch date: May 10, 1999
Source: People's Republic of China (PRC)
Launch site: Taiyaun Space Center, China (TSC)

Note: This is SATELLITE DEBRIS
aabbcc
Your satellite tracking list
Your tracking list is empty




NASA's NSSDC Master Catalog

Two Line Element Set (TLE):
1 33731U 99025DHU 17321.35226631  .00001646  00000-0  13469-2 0  9996
2 33731  99.3179 274.2059 0143785  30.7089 120.9851 13.86328673495855
Source of the keplerian elements: AFSPC